Location: Andershausen
(51.8462°N, 9.8595°E)
Time: 05:48:32
(UTC+00:00)

Cosmos 2173 Rocket - Pass Details

Date: 18 November 2025
Orbit: 943 x 1000 km, 83.0° (Epoch: 11 December)

Event Time Altitude Azimuth Distance (km) Brightness Sun altitude
Rises 15:48:55 0° 190° (S) 3,649 7.6 -4.0°
Reaches altitude 10° 15:51:25 10° 191° (S) 2,698 6.9 -4.3°
Maximum altitude 15:57:36 83° 280° (W) 969 4.1 -5.2°
Drops below altitude 10° 16:03:46 10° 9° (N) 2,684 6.0 -6.0°
Sets 16:06:15 0° 10° (N) 3,629 6.7 -6.4°
